Flag for U.S.A. Weather past 2 weeks in Grand Rapids, Michigan, U.S.A.

Now
22 °F

Heavy snow. Ice fog.


Feels Like: 9 °F
Forecast: 23 / 34 °F
Wind: 15 mph from Southeast

Location: Kent County International Airport

Current Time: Mar 3, 2015 at 10:08:16 AM

Latest Report: Mar 3, 2015 at 8:53 AM


Visibility: 0 mi

Pressure: 29.99 "Hg

Humidity: 89%

Dew point: 19 °F

Location of Grand RapidsLocation

Historic Weather in Grand Rapids — Graph

°F

Grand Rapids temperature yesterday

Maximum temperature yesterday: 28 °F (at 1:53 PM)
Minimum temperature yesterday: 16 °F (at 6:53 AM)
Average temperature yesterday: 23 °F

Past Weeks' High & Low Weather Summary

 TemperatureHumidityPressure
High28 °F (Mar 2, 1:53 PM)89% (Mar 3, 7:53 AM)30.77 "Hg (Mar 3, 7:53 AM)
Low-11 °F (Feb 20, 1:53 AM)34% (Feb 28, 4:53 PM)29.63 "Hg (Feb 24, 8:53 PM)
Average12 °F66%30.23 "Hg
* Reported Feb 16 8:53 AM — Mar 3 8:53 AM, Grand Rapids, Weather by CustomWeather, © 2015

Note: Actual official high and low records may vary slightly from our data, if they occured in-between our weather recording intervals... More about our weather records

Advertising

Grand Rapids weather history for previous 24 hours

 ConditionsComfort  
Time TempWeatherWind HumidityBarometerVisibility
8:53 AM
Tue, Mar 3
22 °FHeavy snow. Ice fog.15 mph89%29.99 "Hg0 mi
8:02 AM22 °FSnow. Ice fog.8 mph89%30.03 "Hg1 mi
7:53 AM22 °FSnow. Ice fog.8 mph89%30.07 "Hg1 mi
6:53 AM24 °FOvercast.8 mph68%30.12 "Hg9 mi
5:53 AM25 °FOvercast.8 mph66%30.13 "Hg8 mi
4:53 AM25 °FOvercast.7 mph66%30.16 "Hg9 mi
3:53 AM24 °FOvercast.6 mph68%30.22 "Hg10 mi
2:53 AM24 °FOvercast.3 mph68%30.25 "Hg10 mi
1:53 AM24 °FOvercast.6 mph68%30.28 "Hg10 mi
12:53 AM23 °FMostly cloudy.6 mph72%30.31 "Hg10 mi
11:53 PM
Mon, Mar 2
23 °FOvercast.5 mph68%30.34 "Hg10 mi
10:53 PM23 °FOvercast.6 mph68%30.35 "Hg10 mi
9:53 PM23 °FOvercast.3 mph65%30.37 "Hg10 mi
8:53 PM22 °FOvercast.5 mph68%30.38 "Hg10 mi
7:53 PM23 °FOvercast.5 mph63%30.41 "Hg10 mi
6:53 PM23 °FPartly cloudy.7 mph63%30.43 "Hg10 mi
5:53 PM24 °FBroken clouds.7 mph60%30.44 "Hg10 mi
4:53 PM27 °FScattered clouds.12 mph53%30.46 "Hg10 mi
3:53 PM27 °FScattered clouds.13 mph58%30.47 "Hg10 mi
2:53 PM27 °FScattered clouds.15 mph55%30.47 "Hg10 mi
1:53 PM28 °FScattered clouds.10 mph56%30.47 "Hg10 mi
12:53 PM27 °FScattered clouds.10 mph55%30.49 "Hg10 mi
11:53 AM27 °FScattered clouds.7 mph53%30.49 "Hg10 mi
10:53 AM26 °FPartly sunny.12 mph57%30.48 "Hg10 mi
Weather by CustomWeather, © 2015

See weather overviewHow to use our weather pages